Regional Weather Roundup
Issued by NWS

Home | Current Version | Previous Version | Text Only | Print | Product List | Glossary Off
Versions: 1 2 3 4 5 6 7 8 9 10 11 12 13 14 15 16 17 18 19 20 21 22 23 24 25 26 27 28 29 30 31 32 33 34 35 36 37 38 39 40 41 42 43 44 45 46 47 48 49 50

000
ASUS43 KDMX 060507
RWRIA

WEATHER ROUNDUP FOR IOWA
NATIONAL WEATHER SERVICE DES MOINES IA
1100 PM CST THU MAR 05 2015

NOTE: "FAIR" INDICATES FEW OR NO CLOUDS BELOW 12,000 FEET WITH NO
SIGNIFICANT WEATHER AND/OR OBSTRUCTIONS TO VISIBILITY.

* - THESE STATIONS ARE NOT NWS STATIONS...THUS NOT UNDER NWS
QUALITY CONTROL.  THEY ALSO DO NOT REPORT WEATHER SUCH
AS PRECIPITATION OR FOG.

IAZ001>003-012>014-020>022-031>034-043>046-060600-
   NORTHWEST IOWA

CITY           SKY/WX    TMP DP  RH WIND       PRES   REMARKS
CARROLL *      CLEAR     12   3  67 SE6       30.33F WCI   3
CHEROKEE *     PTCLDY    18   7  62 S9        30.28F WCI   6
DENISON *      PTCLDY    19   5  53 S16       30.28F WCI   5
LE MARS *      CLEAR     21   9  58 S14       30.25F WCI   8
ORANGE CITY *  CLEAR     19   9  63 S10       30.23F WCI   8
SHELDON *      PTCLDY    18   7  62 S17       30.22F WCI   2
SIOUX CITY     CLOUDY    23   8  52 SE13      30.27F WCI  11
SPENCER        CLEAR     16   6  65 S13       30.26F WCI   2
STORM LAKE *   CLOUDY    16   5  62 S16       30.27F WCI   0
$$

IAZ055>058-069>071-079>083-090>094-060600-
   SOUTHWEST IOWA

CITY           SKY/WX    TMP DP  RH WIND       PRES   REMARKS
ATLANTIC *     CLEAR     21   5  49 S12       30.35F WCI   9
AUDUBON *      CLEAR     18   5  57 S7        30.33F WCI   8
CLARINDA *     CLEAR     18   7  62 S7        30.41F WCI   8
COUNCIL BLFS * CLOUDY    23   7  50 S15       30.32F WCI  10
CRESTON *      CLEAR     16   5  62 SE10      30.38F WCI   3
HARLAN  *      MOCLDY    21   7  53 S12       30.37F WCI   9
LAMONI         CLEAR     18   6  59 S7        30.42F WCI   9
RED OAK *      MOCLDY    23   7  50 S12       30.37F WCI  12
SHENANDOAH *   MOCLDY    23   7  50 S14       30.38F WCI  11
$$

IAZ047>049-059>061-072>074-084-060600-
   CENTRAL IOWA

CITY           SKY/WX    TMP DP  RH WIND       PRES   REMARKS
AMES             N/A     10   2  69 SE10      30.40F WCI  -4
ANKENY *       CLEAR     12   3  67 SE7       30.43F WCI   2
CHARITON *     MOCLDY    14   5  67 SE10      30.43F WCI   1
DES MOINES     PTCLDY    17   4  56 SE9       30.42F WCI   6
GRINNELL*      PTCLDY     5   0  78 SE7       30.45F WCI  -7
KNOXVILLE *    CLEAR     14   3  62 SE8       30.44F WCI   3
MARSHALLTOWN   PTCLDY     5  -2  72 SE9       30.42F WCI  -9
PELLA *        CLEAR     10   7  85 SE7       30.48F WCI   0
PERRY *          N/A     16   9  73 S10       30.38F WCI   3
$$

IAZ004>006-015-016-023>025-035-036-060600-
   NORTH CENTRAL IOWA

CITY           SKY/WX    TMP DP  RH WIND       PRES   REMARKS
ALGONA *       CLEAR     14 N/A N/A S18       30.31F WCI  -3
CLARION *      CLEAR      9   3  78 SE13      30.35F WCI  -7
ESTHERVILLE    CLEAR     13   5  70 S16       30.26F WCI  -3
FORT DODGE *   CLEAR     16   1  53 S8        30.35F WCI   5
MASON CITY     PTCLDY     2  -4  76 S10       30.37F WCI -14
FOREST CITY *  CLEAR      7   0  72 SE10      30.33F WCI  -8
IOWA FALLS *     N/A      3  -2  78 SE9       30.39F WCI -11
$$

IAZ007>011-017>019-026>030-037>042-050>054-066-060600-
   NORTHEAST IOWA

CITY           SKY/WX    TMP DP  RH WIND       PRES   REMARKS
CEDAR RAPIDS   MOCLDY    -2  -6  83 SE6       30.48F WCI -14
CHARLES CITY * CLEAR      3  -4  72 S15       30.39F WCI -15
CLINTON *      PTCLDY     1  -4  78 SW3       30.55S
DECORAH *      CLEAR      1  -6  71 S6        30.41F WCI -10
DUBUQUE        MOCLDY    -4  -9  79 SW6       30.47F WCI -16
MONTICELLO *   CLEAR     -8 -13  77 CALM      30.50F
OELWEIN *      CLEAR     -2  -9  71 S9        30.45F WCI -18
WATERLOO       PTCLDY     2  -4  76 SE7       30.45F WCI -11
$$

IAZ064-065-067-068-078-060600-
   EAST CENTRAL IOWA

CITY           SKY/WX    TMP DP  RH WIND       PRES   REMARKS
DAVENPORT      MOCLDY     1  -6  72 S5        30.53F WCI  -9
IOWA CITY      MOCLDY     3  -3  76 CALM      30.54S
MT. PLEASANT * PTCLDY     3  -2  78 SE7       30.53F WCI  -9
MUSCATINE *    CLEAR      5   0  78 CALM      30.55F
QUAD CITIES    MOCLDY     2  -5  72 CALM      30.55S
$$

IAZ062-063-075>077-085>089-095>099-060600-
   SOUTHEAST IOWA

CITY           SKY/WX    TMP DP  RH WIND       PRES   REMARKS
BURLINGTON     PTCLDY     6  -1  73 SE6       30.53F WCI  -4
FAIRFIELD *    CLEAR      9   0  66 S8        30.51F WCI  -4
FORT MADISON * CLEAR      9   0  66 S5        30.54S WCI   0
KEOKUK *       CLEAR     10   1  67 SE6       30.54S WCI   1
OSKALOOSA *      N/A      9   3  78 SE9       30.49F WCI  -5
CENTERVILLE *  CLEAR     14   7  73 SE7       30.48F WCI   4
OTTUMWA        CLEAR      9   1  70 S8        30.49F WCI  -3
WASHINGTON *   CLEAR      7   3  85 S6        30.52F WCI  -3
$$

ABBREVIATIONS USED IN REMARKS
   TC - TEMPERATURES IN CELSIUS
  WCI - WIND CHILL INDEX
   HX - HEAT INDEX
  VSB - VISIBILITY
$$



USA.gov is the U.S. government's official web portal to all federal, state and local government web resources and services.